Overview Statistics Trail Chart Weather Telemetry Raw packets
 

This is the latest recevied weather packets stored in our database for station/object PE1RXF-13. If no packets are shown the sender has not sent any weather packets the latest 10 day(s).

<< 21 22 23 24 25 26 27 >>
Time Temp. Humidity Pressure Rain* Wind** Luminosity Snow
1788065581 16.67° C 99% 1003.5 hPa 0 mm - 0 W/m² -
1788064478 17.22° C 99% 1003.4 hPa 0 mm - 0 W/m² -
1788063375 16.67° C 99% 1003.2 hPa 0 mm - 0 W/m² -
1788062272 16.67° C 99% 1003.1 hPa 0.76 mm - 0 W/m² -
1788061169 16.67° C 99% 1002.9 hPa 0.76 mm - 0 W/m² -
1788060066 16.67° C 99% 1002.9 hPa 0.76 mm - 0 W/m² -
1788058963 16.67° C 99% 1002.8 hPa 0.76 mm - 0 W/m² -
1788057860 16.67° C 99% 1002.7 hPa 0 mm - 0 W/m² -
1788056757 17.22° C 99% 1002.5 hPa 0 mm - 0 W/m² -
1788055654 17.78° C 99% 1002.4 hPa 0 mm - 0 W/m² -
1788053448 17.22° C 99% 1002.6 hPa 0 mm - 0 W/m² -
1788052345 17.22° C 99% 1002.7 hPa 0 mm - 0 W/m² -
1788051242 17.22° C 99% 1002.8 hPa 0 mm - 0 W/m² -
1788050139 17.22° C 99% 1002.9 hPa 0 mm - 0 W/m² -
1788049036 17.22° C 99% 1002.9 hPa 0 mm - 0 W/m² -
1788047933 17.22° C 99% 1003.1 hPa 1.02 mm - 0 W/m² -
1788046830 17.22° C 99% 1003.4 hPa 1.02 mm - 0 W/m² -
1788045726 17.22° C 99% 1003.7 hPa 1.02 mm - 0 W/m² -
1788044624 17.22° C 99% 1003.8 hPa 1.02 mm - 0 W/m² -
1788043521 17.22° C 99% 1003.9 hPa 0 mm - 0 W/m² -
1788042418 17.22° C 99% 1004.3 hPa 0 mm - 0 W/m² -
1788041315 17.22° C 99% 1004.6 hPa 0 mm - 0 W/m² -
1788040212 17.22° C 99% 1004.8 hPa 0.25 mm - 0 W/m² -
1788039109 17.22° C 99% 1005 hPa 0.25 mm - 0 W/m² -
1788038005 17.22° C 99% 1005.1 hPa 0.25 mm - 0 W/m² -

* Rain latest hour (hover to see other rain measurements)
** Current wind speed in m/s (hover to see current wind gust speed)